Time,TemperatureF,DewpointF,PressureIn,WindDirection,WindDirectionDegrees,WindSpeedMPH,WindSpeedGustMPH,Humidity,HourlyPrecipIn,Conditions,Clouds,dailyrainin,SolarRadiationWatts/m^2,SoftwareType,DateUTC
2013-09-04 00:01:00,66.6,57.3,29.87,North,360,0.0,0.0,72,0.00,,,0.00,0,Wunderground v.1.15,2013-09-04 04:01:00,
2013-09-04 00:04:00,66.6,57.3,29.87,North,360,0.0,0.0,72,0.00,,,0.00,0,Wunderground v.1.15,2013-09-04 04:04:00,
2013-09-04 00:05:00,66.4,57.5,29.87,North,360,0.0,0.0,73,0.00,,,0.00,0,Wunderground v.1.15,2013-09-04 04:05:00,
2013-09-04 00:07:00,66.4,57.5,29.87,North,360,0.0,0.0,73,0.00,,,0.00,0,Wunderground v.1.15,2013-09-04 04:07:00,
2013-09-04 00:12:00,66.4,57.5,29.87,North,360,0.0,0.0,73,0.00,,,0.00,0,Wunderground v.1.15,2013-09-04 04:12:00,
2013-09-04 00:15:00,66.3,57.4,29.86,North,360,0.0,0.0,73,0.00,,,0.00,0,Wunderground v.1.15,2013-09-04 04:15:00,
2013-09-04 00:21:00,66.3,57.8,29.86,North,360,0.0,0.0,74,0.00,,,0.00,0,Wunderground v.1.15,2013-09-04 04:21:00,
2013-09-04 00:27:00,66.1,57.6,29.86,North,360,0.0,0.0,74,0.00,,,0.00,0,Wunderground v.1.15,2013-09-04 04:27:00,
2013-09-04 00:36:00,65.8,57.7,29.86,North,360,0.0,0.0,75,0.00,,,0.00,0,Wunderground v.1.15,2013-09-04 04:36:00,
2013-09-04 00:41:00,65.6,57.5,29.86,North,360,0.0,0.0,75,0.00,,,0.00,0,Wunderground v.1.15,2013-09-04 04:41:00,
2013-09-04 00:47:00,65.5,57.4,29.86,North,360,0.0,0.0,75,0.00,,,0.00,0,Wunderground v.1.15,2013-09-04 04:47:00,
2013-09-04 00:54:00,65.3,57.5,29.86,North,360,0.0,0.0,76,0.00,,,0.00,0,Wunderground v.1.15,2013-09-04 04:54:00,
2013-09-04 01:01:00,65.2,57.8,29.87,North,360,0.0,0.0,77,0.00,,,0.00,0,Wunderground v.1.15,2013-09-04 05:01:00,
2013-09-04 01:07:00,65.0,57.6,29.87,North,360,0.0,0.0,77,0.00,,,0.00,0,Wunderground v.1.15,2013-09-04 05:07:00,
2013-09-04 01:15:00,64.8,57.4,29.88,North,360,0.0,0.0,77,0.00,,,0.00,0,Wunderground v.1.15,2013-09-04 05:15:00,
2013-09-04 01:21:00,64.8,57.8,29.88,North,360,0.0,0.0,78,0.00,,,0.00,0,Wunderground v.1.15,2013-09-04 05:21:00,
2013-09-04 01:26:00,64.7,57.7,29.88,North,360,0.0,0.0,78,0.00,,,0.00,0,Wunderground v.1.15,2013-09-04 05:26:00,
2013-09-04 01:32:00,64.7,57.7,29.88,North,360,0.0,0.0,78,0.00,,,0.00,0,Wunderground v.1.15,2013-09-04 05:32:00,
2013-09-04 01:38:00,64.5,57.8,29.88,North,360,0.0,0.0,79,0.00,,,0.00,0,Wunderground v.1.15,2013-09-04 05:38:00,
2013-09-04 01:46:00,64.3,57.6,29.88,North,360,0.0,0.0,79,0.00,,,0.00,0,Wunderground v.1.15,2013-09-04 05:46:00,
2013-09-04 01:52:00,64.3,57.6,29.88,North,360,0.0,0.0,79,0.00,,,0.00,0,Wunderground v.1.15,2013-09-04 05:52:00,
2013-09-04 01:58:00,64.2,57.5,29.88,North,360,0.0,0.0,79,0.00,,,0.00,0,Wunderground v.1.15,2013-09-04 05:58:00,
2013-09-04 02:06:00,64.0,57.7,29.88,North,360,0.0,0.0,80,0.00,,,0.00,0,Wunderground v.1.15,2013-09-04 06:06:00,
2013-09-04 02:12:00,63.9,58.0,29.88,North,360,0.0,0.0,81,0.00,,,0.00,0,Wunderground v.1.15,2013-09-04 06:12:00,
2013-09-04 02:18:00,63.7,58.1,29.89,North,360,0.0,0.0,82,0.00,,,0.00,0,Wunderground v.1.15,2013-09-04 06:18:00,
2013-09-04 02:26:00,63.5,58.2,29.89,North,360,0.0,0.0,83,0.00,,,0.00,0,Wunderground v.1.15,2013-09-04 06:26:00,
2013-09-04 02:32:00,63.5,58.2,29.89,North,360,0.0,0.0,83,0.00,,,0.00,0,Wunderground v.1.15,2013-09-04 06:32:00,
2013-09-04 02:38:00,63.4,58.1,29.89,North,360,0.0,0.0,83,0.00,,,0.00,0,Wunderground v.1.15,2013-09-04 06:38:00,
2013-09-04 02:46:00,63.4,58.1,29.89,North,360,0.0,0.0,83,0.00,,,0.00,0,Wunderground v.1.15,2013-09-04 06:46:00,
2013-09-04 02:52:00,63.4,58.1,29.89,North,360,0.0,0.0,83,0.00,,,0.00,0,Wunderground v.1.15,2013-09-04 06:52:00,
2013-09-04 02:58:00,63.2,57.9,29.89,North,360,0.0,0.0,83,0.00,,,0.00,0,Wunderground v.1.15,2013-09-04 06:58:00,
2013-09-04 03:05:00,63.1,57.9,29.89,North,360,0.0,0.0,83,0.00,,,0.00,0,Wunderground v.1.15,2013-09-04 07:05:00,
2013-09-04 03:11:00,63.1,57.9,29.89,North,360,0.0,0.0,83,0.00,,,0.00,0,Wunderground v.1.15,2013-09-04 07:11:00,
2013-09-04 03:17:00,62.9,58.0,29.89,North,360,0.0,0.0,84,0.00,,,0.00,0,Wunderground v.1.15,2013-09-04 07:17:00,
2013-09-04 03:25:00,62.7,58.1,29.89,North,360,0.0,0.0,85,0.00,,,0.00,0,Wunderground v.1.15,2013-09-04 07:25:00,
2013-09-04 03:31:00,62.6,58.0,29.89,North,360,0.0,0.0,85,0.00,,,0.00,0,Wunderground v.1.15,2013-09-04 07:31:00,
2013-09-04 03:37:00,62.4,57.8,29.89,North,360,0.0,0.0,85,0.00,,,0.00,0,Wunderground v.1.15,2013-09-04 07:37:00,
2013-09-04 03:45:00,62.1,57.9,29.89,North,360,0.0,0.0,86,0.00,,,0.00,0,Wunderground v.1.15,2013-09-04 07:45:00,
2013-09-04 03:51:00,62.0,57.8,29.89,North,360,0.0,0.0,86,0.00,,,0.00,0,Wunderground v.1.15,2013-09-04 07:51:00,
2013-09-04 03:57:00,61.8,57.6,29.89,North,360,0.0,0.0,86,0.00,,,0.00,0,Wunderground v.1.15,2013-09-04 07:57:00,
2013-09-04 04:06:00,61.6,57.7,29.90,North,360,0.0,0.0,87,0.00,,,0.00,0,Wunderground v.1.15,2013-09-04 08:06:00,
2013-09-04 04:11:00,61.5,57.6,29.90,North,360,0.0,0.0,87,0.00,,,0.00,0,Wunderground v.1.15,2013-09-04 08:11:00,
2013-09-04 04:17:00,61.3,57.7,29.90,North,360,0.0,0.0,88,0.00,,,0.00,0,Wunderground v.1.15,2013-09-04 08:17:00,
2013-09-04 04:22:00,61.3,57.7,29.90,North,360,0.0,0.0,88,0.00,,,0.00,0,Wunderground v.1.15,2013-09-04 08:22:00,
2013-09-04 04:28:00,61.3,57.7,29.90,North,360,0.0,0.0,88,0.00,,,0.00,0,Wunderground v.1.15,2013-09-04 08:28:00,
2013-09-04 04:36:00,61.3,58.0,29.90,North,360,0.0,0.0,89,0.00,,,0.00,0,Wunderground v.1.15,2013-09-04 08:36:00,
2013-09-04 04:42:00,61.3,58.0,29.90,North,360,0.0,0.0,89,0.00,,,0.00,0,Wunderground v.1.15,2013-09-04 08:42:00,
2013-09-04 04:48:00,61.3,58.0,29.91,North,360,0.0,0.0,89,0.00,,,0.00,0,Wunderground v.1.15,2013-09-04 08:48:00,
2013-09-04 04:56:00,61.2,57.9,29.91,North,360,0.0,0.0,89,0.00,,,0.00,0,Wunderground v.1.15,2013-09-04 08:56:00,
2013-09-04 05:02:00,61.2,57.9,29.91,North,360,0.0,0.0,89,0.00,,,0.00,0,Wunderground v.1.15,2013-09-04 09:02:00,
2013-09-04 05:08:00,61.0,57.7,29.91,North,360,0.0,0.0,89,0.00,,,0.00,0,Wunderground v.1.15,2013-09-04 09:08:00,
2013-09-04 05:16:00,60.9,57.9,29.92,North,360,0.0,0.0,90,0.00,,,0.00,0,Wunderground v.1.15,2013-09-04 09:16:00,
2013-09-04 05:22:00,60.9,57.9,29.92,North,360,0.0,0.0,90,0.00,,,0.00,0,Wunderground v.1.15,2013-09-04 09:22:00,
2013-09-04 05:28:00,60.7,57.7,29.92,North,360,0.0,0.0,90,0.00,,,0.00,0,Wunderground v.1.15,2013-09-04 09:28:00,
2013-09-04 05:34:00,60.7,57.7,29.92,North,360,0.0,0.0,90,0.00,,,0.00,0,Wunderground v.1.15,2013-09-04 09:34:00,
2013-09-04 05:39:00,60.7,58.1,29.92,North,360,0.0,2.0,91,0.00,,,0.00,0,Wunderground v.1.15,2013-09-04 09:39:00,
2013-09-04 05:45:00,60.9,58.3,29.92,North,360,0.0,2.0,91,0.00,,,0.00,0,Wunderground v.1.15,2013-09-04 09:45:00,
2013-09-04 05:51:00,60.9,58.3,29.92,North,360,0.0,0.0,91,0.00,,,0.00,0,Wunderground v.1.15,2013-09-04 09:51:00,
2013-09-04 05:57:00,60.9,57.9,29.92,North,360,0.0,0.0,90,0.00,,,0.00,0,Wunderground v.1.15,2013-09-04 09:57:00,
2013-09-04 06:05:00,60.9,57.9,29.93,North,360,0.0,0.0,90,0.00,,,0.00,0,Wunderground v.1.15,2013-09-04 10:05:00,
2013-09-04 06:11:00,60.9,57.9,29.93,North,360,0.0,0.0,90,0.00,,,0.00,0,Wunderground v.1.15,2013-09-04 10:11:00,
2013-09-04 06:17:00,60.9,57.9,29.93,North,360,0.0,0.0,90,0.00,,,0.00,0,Wunderground v.1.15,2013-09-04 10:17:00,
2013-09-04 06:24:00,60.9,57.9,29.93,North,360,0.0,0.0,90,0.00,,,0.00,0,Wunderground v.1.15,2013-09-04 10:24:00,
2013-09-04 06:31:00,61.0,58.0,29.94,North,360,0.0,0.0,90,0.00,,,0.00,0,Wunderground v.1.15,2013-09-04 10:31:00,
2013-09-04 06:37:00,61.2,57.9,29.94,North,360,0.0,0.0,89,0.00,,,0.00,9,Wunderground v.1.15,2013-09-04 10:37:00,
2013-09-04 06:45:00,61.3,58.0,29.94,North,360,0.0,0.0,89,0.00,,,0.00,16,Wunderground v.1.15,2013-09-04 10:45:00,
2013-09-04 06:51:00,61.5,57.9,29.94,North,360,0.0,0.0,88,0.00,,,0.00,14,Wunderground v.1.15,2013-09-04 10:51:00,
2013-09-04 06:57:00,61.6,58.0,29.94,North,360,0.0,1.0,88,0.00,,,0.00,16,Wunderground v.1.15,2013-09-04 10:57:00,
2013-09-04 07:04:00,61.8,57.9,29.94,North,360,0.0,0.0,87,0.00,,,0.00,19,Wunderground v.1.15,2013-09-04 11:04:00,
2013-09-04 07:09:00,62.0,58.1,29.94,North,360,0.0,0.0,87,0.00,,,0.00,23,Wunderground v.1.15,2013-09-04 11:09:00,
2013-09-04 07:15:00,62.1,57.9,29.94,North,360,0.0,0.0,86,0.00,,,0.00,88,Wunderground v.1.15,2013-09-04 11:15:00,
2013-09-04 07:20:00,62.4,58.2,29.94,North,360,0.0,1.0,86,0.00,,,0.00,100,Wunderground v.1.15,2013-09-04 11:20:00,
2013-09-04 07:26:00,62.7,58.1,29.94,North,360,0.0,0.0,85,0.00,,,0.00,113,Wunderground v.1.15,2013-09-04 11:26:00,
2013-09-04 07:32:00,63.1,58.5,29.95,North,360,0.0,0.0,85,0.00,,,0.00,62,Wunderground v.1.15,2013-09-04 11:32:00,
2013-09-04 07:38:00,63.5,57.9,29.95,North,360,1.0,3.0,82,0.00,,,0.00,26,Wunderground v.1.15,2013-09-04 11:38:00,
2013-09-04 07:46:00,64.2,57.9,29.95,North,360,1.0,3.0,80,0.00,,,0.00,26,Wunderground v.1.15,2013-09-04 11:46:00,
2013-09-04 07:52:00,64.5,57.8,29.95,North,360,1.0,1.0,79,0.00,,,0.00,28,Wunderground v.1.15,2013-09-04 11:52:00,
2013-09-04 07:58:00,65.0,58.0,29.95,North,360,1.0,1.0,78,0.00,,,0.00,46,Wunderground v.1.15,2013-09-04 11:58:00,
2013-09-04 08:04:00,65.5,57.7,29.96,North,360,1.0,2.0,76,0.00,,,0.00,213,Wunderground v.1.15,2013-09-04 12:04:00,
2013-09-04 08:10:00,65.8,57.7,29.96,North,360,1.0,2.0,75,0.00,,,0.00,230,Wunderground v.1.15,2013-09-04 12:10:00,
2013-09-04 08:16:00,66.1,57.6,29.97,North,360,1.0,1.0,74,0.00,,,0.00,225,Wunderground v.1.15,2013-09-04 12:16:00,
2013-09-04 08:22:00,66.6,57.7,29.97,North,360,0.0,3.0,73,0.00,,,0.00,260,Wunderground v.1.15,2013-09-04 12:22:00,
2013-09-04 08:28:00,67.1,57.8,29.97,North,360,1.0,3.0,72,0.00,,,0.00,281,Wunderground v.1.15,2013-09-04 12:28:00,
2013-09-04 08:34:00,67.4,57.3,29.97,North,360,1.0,2.0,70,0.00,,,0.00,297,Wunderground v.1.15,2013-09-04 12:34:00,
2013-09-04 08:42:00,67.8,56.9,29.97,North,360,1.0,1.0,68,0.00,,,0.00,320,Wunderground v.1.15,2013-09-04 12:42:00,
2013-09-04 08:47:00,68.3,57.3,29.97,North,360,1.0,2.0,68,0.00,,,0.00,336,Wunderground v.1.15,2013-09-04 12:47:00,
2013-09-04 08:56:00,68.6,56.8,29.97,North,360,1.0,1.0,66,0.00,,,0.00,359,Wunderground v.1.15,2013-09-04 12:56:00,
2013-09-04 09:01:00,68.8,57.0,29.98,North,360,2.0,2.0,66,0.00,,,0.00,374,Wunderground v.1.15,2013-09-04 13:01:00,
2013-09-04 09:07:00,69.1,56.8,29.98,North,360,2.0,4.0,65,0.00,,,0.00,390,Wunderground v.1.15,2013-09-04 13:07:00,
2013-09-04 09:14:00,69.3,57.0,29.98,North,360,2.0,2.0,65,0.00,,,0.00,410,Wunderground v.1.15,2013-09-04 13:14:00,
2013-09-04 09:21:00,69.8,57.1,29.98,North,360,1.0,2.0,64,0.00,,,0.00,427,Wunderground v.1.15,2013-09-04 13:21:00,
2013-09-04 09:27:00,70.1,57.4,29.98,North,360,1.0,2.0,64,0.00,,,0.00,443,Wunderground v.1.15,2013-09-04 13:27:00,
2013-09-04 09:34:00,70.8,56.7,29.98,North,360,1.0,1.0,61,0.00,,,0.00,459,Wunderground v.1.15,2013-09-04 13:34:00,
2013-09-04 09:39:00,71.1,56.0,29.98,North,360,2.0,2.0,59,0.00,,,0.00,471,Wunderground v.1.15,2013-09-04 13:39:00,
2013-09-04 09:45:00,71.5,55.5,29.97,North,360,2.0,2.0,57,0.00,,,0.00,485,Wunderground v.1.15,2013-09-04 13:45:00,
2013-09-04 09:51:00,71.5,55.0,29.97,North,360,3.0,5.0,56,0.00,,,0.00,501,Wunderground v.1.15,2013-09-04 13:51:00,
2013-09-04 09:57:00,71.8,54.8,29.97,North,360,3.0,5.0,55,0.00,,,0.00,512,Wunderground v.1.15,2013-09-04 13:57:00,
2013-09-04 10:05:00,72.3,53.7,29.97,North,360,2.0,4.0,52,0.00,,,0.00,529,Wunderground v.1.15,2013-09-04 14:05:00,
2013-09-04 10:11:00,72.5,52.8,29.97,North,360,2.0,6.0,50,0.00,,,0.00,543,Wunderground v.1.15,2013-09-04 14:11:00,
2013-09-04 10:17:00,72.7,51.3,29.97,North,360,3.0,6.0,47,0.00,,,0.00,557,Wunderground v.1.15,2013-09-04 14:17:00,
2013-09-04 10:22:00,72.8,51.4,29.97,North,360,3.0,3.0,47,0.00,,,0.00,568,Wunderground v.1.15,2013-09-04 14:22:00,
2013-09-04 10:28:00,72.8,49.6,29.97,North,360,4.0,4.0,44,0.00,,,0.00,584,Wunderground v.1.15,2013-09-04 14:28:00,
2013-09-04 10:36:00,73.3,50.1,29.96,North,360,4.0,5.0,44,0.00,,,0.00,596,Wunderground v.1.15,2013-09-04 14:36:00,
2013-09-04 10:42:00,73.3,50.1,29.96,North,360,4.0,6.0,44,0.00,,,0.00,608,Wunderground v.1.15,2013-09-04 14:42:00,
2013-09-04 10:48:00,73.2,49.4,29.96,North,360,5.0,7.0,43,0.00,,,0.00,617,Wunderground v.1.15,2013-09-04 14:48:00,
2013-09-04 10:55:00,74.2,52.1,29.96,North,360,2.0,4.0,46,0.00,,,0.00,626,Wunderground v.1.15,2013-09-04 14:55:00,
2013-09-04 11:02:00,74.4,49.2,29.95,North,360,3.0,6.0,41,0.00,,,0.00,643,Wunderground v.1.15,2013-09-04 15:02:00,
2013-09-04 11:08:00,74.9,49.6,29.95,North,360,4.0,6.0,41,0.00,,,0.00,649,Wunderground v.1.15,2013-09-04 15:08:00,
2013-09-04 11:16:00,75.4,48.7,29.96,North,360,3.0,3.0,39,0.00,,,0.00,659,Wunderground v.1.15,2013-09-04 15:16:00,
2013-09-04 11:22:00,76.1,48.6,29.96,North,360,3.0,3.0,38,0.00,,,0.00,668,Wunderground v.1.15,2013-09-04 15:22:00,
2013-09-04 11:28:00,76.5,46.0,29.96,North,360,3.0,5.0,34,0.00,,,0.00,677,Wunderground v.1.15,2013-09-04 15:28:00,
2013-09-04 11:36:00,76.8,47.8,29.95,North,360,3.0,3.0,36,0.00,,,0.00,686,Wunderground v.1.15,2013-09-04 15:36:00,
2013-09-04 11:42:00,77.4,49.1,29.95,North,360,2.0,2.0,37,0.00,,,0.00,693,Wunderground v.1.15,2013-09-04 15:42:00,
2013-09-04 11:47:00,77.7,49.3,29.95,North,360,2.0,2.0,37,0.00,,,0.00,698,Wunderground v.1.15,2013-09-04 15:47:00,
2013-09-04 11:56:00,77.7,47.9,29.95,North,360,2.0,4.0,35,0.00,,,0.00,705,Wunderground v.1.15,2013-09-04 15:56:00,
2013-09-04 12:01:00,77.6,47.8,29.96,North,360,3.0,3.0,35,0.00,,,0.00,712,Wunderground v.1.15,2013-09-04 16:01:00,
2013-09-04 12:07:00,77.6,48.5,29.96,North,360,3.0,4.0,36,0.00,,,0.00,715,Wunderground v.1.15,2013-09-04 16:07:00,
2013-09-04 12:14:00,77.6,48.5,29.96,North,360,5.0,7.0,36,0.00,,,0.00,717,Wunderground v.1.15,2013-09-04 16:14:00,
2013-09-04 12:19:00,77.4,49.1,29.95,North,360,5.0,9.0,37,0.00,,,0.00,719,Wunderground v.1.15,2013-09-04 16:19:00,
2013-09-04 12:25:00,77.9,48.8,29.95,North,360,3.0,5.0,36,0.00,,,0.00,721,Wunderground v.1.15,2013-09-04 16:25:00,
2013-09-04 12:31:00,78.5,50.8,29.94,North,360,2.0,2.0,38,0.00,,,0.00,728,Wunderground v.1.15,2013-09-04 16:31:00,
2013-09-04 12:37:00,78.8,49.6,29.94,North,360,2.0,3.0,36,0.00,,,0.00,728,Wunderground v.1.15,2013-09-04 16:37:00,
2013-09-04 12:45:00,79.2,49.2,29.94,North,360,2.0,4.0,35,0.00,,,0.00,728,Wunderground v.1.15,2013-09-04 16:45:00,
2013-09-04 12:51:00,79.2,51.4,29.94,North,360,4.0,4.0,38,0.00,,,0.00,726,Wunderground v.1.15,2013-09-04 16:51:00,
2013-09-04 12:57:00,79.8,52.6,29.94,North,360,3.0,4.0,39,0.00,,,0.00,728,Wunderground v.1.15,2013-09-04 16:57:00,
2013-09-04 13:05:00,79.9,50.6,29.94,North,360,2.0,5.0,36,0.00,,,0.00,729,Wunderground v.1.15,2013-09-04 17:05:00,
2013-09-04 13:11:00,80.1,50.0,29.94,North,360,2.0,3.0,35,0.00,,,0.00,726,Wunderground v.1.15,2013-09-04 17:11:00,
2013-09-04 13:17:00,80.1,50.0,29.94,North,360,2.0,3.0,35,0.00,,,0.00,729,Wunderground v.1.15,2013-09-04 17:17:00,
2013-09-04 13:22:00,79.8,49.7,29.94,North,360,3.0,4.0,35,0.00,,,0.00,721,Wunderground v.1.15,2013-09-04 17:22:00,
2013-09-04 13:28:00,80.9,50.7,29.94,North,360,2.0,5.0,35,0.00,,,0.00,717,Wunderground v.1.15,2013-09-04 17:28:00,
2013-09-04 13:35:00,79.8,52.6,29.94,North,360,2.0,3.0,39,0.00,,,0.00,715,Wunderground v.1.15,2013-09-04 17:35:00,
2013-09-04 13:42:00,80.7,51.3,29.94,North,360,1.0,1.0,36,0.00,,,0.00,714,Wunderground v.1.15,2013-09-04 17:42:00,
2013-09-04 13:48:00,80.5,51.8,29.94,North,360,1.0,2.0,37,0.00,,,0.00,707,Wunderground v.1.15,2013-09-04 17:48:00,
2013-09-04 13:56:00,80.5,51.1,29.94,North,360,3.0,7.0,36,0.00,,,0.00,703,Wunderground v.1.15,2013-09-04 17:56:00,
2013-09-04 14:02:00,81.4,51.1,29.94,North,360,3.0,3.0,35,0.00,,,0.00,696,Wunderground v.1.15,2013-09-04 18:02:00,
2013-09-04 14:08:00,80.9,50.7,29.94,North,360,3.0,3.0,35,0.00,,,0.00,687,Wunderground v.1.15,2013-09-04 18:08:00,
2013-09-04 14:14:00,81.8,50.7,29.94,North,360,2.0,2.0,34,0.00,,,0.00,686,Wunderground v.1.15,2013-09-04 18:14:00,
2013-09-04 14:22:00,81.8,49.9,29.94,North,360,2.0,2.0,33,0.00,,,0.00,689,Wunderground v.1.15,2013-09-04 18:22:00,
2013-09-04 14:28:00,81.2,51.7,29.94,North,360,2.0,3.0,36,0.00,,,0.00,670,Wunderground v.1.15,2013-09-04 18:28:00,
2013-09-04 14:36:00,81.4,52.6,29.93,North,360,1.0,3.0,37,0.00,,,0.00,656,Wunderground v.1.15,2013-09-04 18:36:00,
2013-09-04 14:41:00,80.7,52.0,29.93,North,360,2.0,2.0,37,0.00,,,0.00,659,Wunderground v.1.15,2013-09-04 18:41:00,
2013-09-04 14:47:00,80.3,53.1,29.93,North,360,4.0,8.0,39,0.00,,,0.00,643,Wunderground v.1.15,2013-09-04 18:47:00,
2013-09-04 14:55:00,80.5,52.6,29.93,North,360,4.0,4.0,38,0.00,,,0.00,628,Wunderground v.1.15,2013-09-04 18:55:00,
2013-09-04 15:01:00,80.5,54.0,29.93,North,360,4.0,4.0,40,0.00,,,0.00,621,Wunderground v.1.15,2013-09-04 19:01:00,
2013-09-04 15:07:00,80.9,54.3,29.93,North,360,2.0,4.0,40,0.00,,,0.00,638,Wunderground v.1.15,2013-09-04 19:07:00,
2013-09-04 15:15:00,80.9,53.6,29.93,North,360,3.0,6.0,39,0.00,,,0.00,642,Wunderground v.1.15,2013-09-04 19:15:00,
2013-09-04 15:21:00,81.1,53.8,29.93,North,360,3.0,4.0,39,0.00,,,0.00,584,Wunderground v.1.15,2013-09-04 19:21:00,
2013-09-04 15:27:00,81.2,53.9,29.93,North,360,2.0,4.0,39,0.00,,,0.00,573,Wunderground v.1.15,2013-09-04 19:27:00,
2013-09-04 15:35:00,81.4,53.4,29.92,North,360,2.0,8.0,38,0.00,,,0.00,568,Wunderground v.1.15,2013-09-04 19:35:00,
2013-09-04 15:41:00,81.4,54.1,29.92,North,360,2.0,2.0,39,0.00,,,0.00,548,Wunderground v.1.15,2013-09-04 19:41:00,
2013-09-04 15:47:00,81.4,54.8,29.92,North,360,2.0,3.0,40,0.00,,,0.00,531,Wunderground v.1.15,2013-09-04 19:47:00,
2013-09-04 15:54:00,81.2,54.6,29.92,North,360,3.0,5.0,40,0.00,,,0.00,512,Wunderground v.1.15,2013-09-04 19:54:00,
2013-09-04 16:01:00,81.1,53.8,29.92,North,360,3.0,3.0,39,0.00,,,0.00,497,Wunderground v.1.15,2013-09-04 20:01:00,
2013-09-04 16:07:00,81.2,53.9,29.92,North,360,3.0,4.0,39,0.00,,,0.00,478,Wunderground v.1.15,2013-09-04 20:07:00,
2013-09-04 16:15:00,81.8,53.0,29.92,North,360,2.0,5.0,37,0.00,,,0.00,462,Wunderground v.1.15,2013-09-04 20:15:00,
2013-09-04 16:22:00,81.4,54.1,29.92,North,360,2.0,2.0,39,0.00,,,0.00,462,Wunderground v.1.15,2013-09-04 20:22:00,
2013-09-04 16:28:00,81.4,54.8,29.92,North,360,1.0,4.0,40,0.00,,,0.00,434,Wunderground v.1.15,2013-09-04 20:28:00,
2013-09-04 16:36:00,81.1,53.8,29.92,North,360,3.0,6.0,39,0.00,,,0.00,415,Wunderground v.1.15,2013-09-04 20:36:00,
2013-09-04 16:42:00,80.7,54.8,29.92,North,360,2.0,4.0,41,0.00,,,0.00,394,Wunderground v.1.15,2013-09-04 20:42:00,
2013-09-04 16:48:00,80.7,55.5,29.92,North,360,2.0,4.0,42,0.00,,,0.00,294,Wunderground v.1.15,2013-09-04 20:48:00,
2013-09-04 16:57:00,80.9,55.0,29.92,North,360,2.0,3.0,41,0.00,,,0.00,39,Wunderground v.1.15,2013-09-04 20:57:00,
2013-09-04 17:06:00,80.7,52.7,29.92,North,360,3.0,3.0,38,0.00,,,0.00,167,Wunderground v.1.15,2013-09-04 21:06:00,
2013-09-04 17:12:00,80.7,54.1,29.92,North,360,2.0,3.0,40,0.00,,,0.00,135,Wunderground v.1.15,2013-09-04 21:12:00,
2013-09-04 17:18:00,80.7,54.8,29.92,North,360,2.0,2.0,41,0.00,,,0.00,35,Wunderground v.1.15,2013-09-04 21:18:00,
2013-09-04 17:26:00,80.3,55.8,29.92,North,360,3.0,4.0,43,0.00,,,0.00,274,Wunderground v.1.15,2013-09-04 21:26:00,
2013-09-04 17:32:00,80.3,56.4,29.92,North,360,2.0,4.0,44,0.00,,,0.00,72,Wunderground v.1.15,2013-09-04 21:32:00,
2013-09-04 17:37:00,80.3,56.4,29.92,North,360,2.0,3.0,44,0.00,,,0.00,243,Wunderground v.1.15,2013-09-04 21:37:00,
2013-09-04 17:45:00,80.3,57.0,29.92,North,360,2.0,2.0,45,0.00,,,0.00,220,Wunderground v.1.15,2013-09-04 21:45:00,
2013-09-04 17:51:00,80.1,56.2,29.92,North,360,2.0,2.0,44,0.00,,,0.00,156,Wunderground v.1.15,2013-09-04 21:51:00,
2013-09-04 17:57:00,79.9,55.4,29.92,North,360,2.0,4.0,43,0.00,,,0.00,47,Wunderground v.1.15,2013-09-04 21:57:00,
2013-09-04 18:06:00,79.9,56.0,29.92,North,360,3.0,3.0,44,0.00,,,0.00,62,Wunderground v.1.15,2013-09-04 22:06:00,
2013-09-04 18:11:00,79.8,55.3,29.92,North,360,3.0,6.0,43,0.00,,,0.00,62,Wunderground v.1.15,2013-09-04 22:11:00,
2013-09-04 18:17:00,79.9,55.4,29.91,North,360,2.0,6.0,43,0.00,,,0.00,58,Wunderground v.1.15,2013-09-04 22:17:00,
2013-09-04 18:25:00,79.8,54.7,29.91,North,360,2.0,4.0,42,0.00,,,0.00,67,Wunderground v.1.15,2013-09-04 22:25:00,
2013-09-04 18:31:00,79.6,55.1,29.92,North,360,3.0,7.0,43,0.00,,,0.00,105,Wunderground v.1.15,2013-09-04 22:31:00,
2013-09-04 18:37:00,79.6,54.5,29.92,North,360,2.0,7.0,42,0.00,,,0.00,42,Wunderground v.1.15,2013-09-04 22:37:00,
2013-09-04 18:45:00,79.4,54.3,29.92,North,360,3.0,3.0,42,0.00,,,0.00,33,Wunderground v.1.15,2013-09-04 22:45:00,
2013-09-04 18:51:00,79.2,54.1,29.92,North,360,2.0,2.0,42,0.00,,,0.00,26,Wunderground v.1.15,2013-09-04 22:51:00,
2013-09-04 18:57:00,79.0,53.9,29.92,North,360,2.0,2.0,42,0.00,,,0.00,21,Wunderground v.1.15,2013-09-04 22:57:00,
2013-09-04 19:05:00,78.6,53.6,29.92,North,360,2.0,3.0,42,0.00,,,0.00,12,Wunderground v.1.15,2013-09-04 23:05:00,
2013-09-04 19:11:00,78.3,54.6,29.92,North,360,3.0,3.0,44,0.00,,,0.00,9,Wunderground v.1.15,2013-09-04 23:11:00,
2013-09-04 19:16:00,77.9,54.2,29.92,North,360,2.0,3.0,44,0.00,,,0.00,7,Wunderground v.1.15,2013-09-04 23:16:00,
2013-09-04 19:22:00,77.7,54.0,29.92,North,360,3.0,3.0,44,0.00,,,0.00,0,Wunderground v.1.15,2013-09-04 23:22:00,
2013-09-04 19:28:00,77.6,54.6,29.92,North,360,2.0,5.0,45,0.00,,,0.00,0,Wunderground v.1.15,2013-09-04 23:28:00,
2013-09-04 19:36:00,77.2,54.8,29.92,North,360,2.0,4.0,46,0.00,,,0.00,0,Wunderground v.1.15,2013-09-04 23:36:00,
2013-09-04 19:42:00,76.8,55.0,29.92,North,360,2.0,2.0,47,0.00,,,0.00,0,Wunderground v.1.15,2013-09-04 23:42:00,
2013-09-04 19:48:00,76.7,55.5,29.92,North,360,1.0,3.0,48,0.00,,,0.00,0,Wunderground v.1.15,2013-09-04 23:48:00,
2013-09-04 19:55:00,76.5,55.3,29.92,North,360,1.0,2.0,48,0.00,,,0.00,0,Wunderground v.1.15,2013-09-04 23:55:00,
2013-09-04 20:02:00,76.3,55.7,29.92,North,360,1.0,1.0,49,0.00,,,0.00,0,Wunderground v.1.15,2013-09-05 00:02:00,
2013-09-04 20:08:00,76.1,56.1,29.92,North,360,1.0,1.0,50,0.00,,,0.00,0,Wunderground v.1.15,2013-09-05 00:08:00,
2013-09-04 20:16:00,75.8,56.4,29.93,North,360,1.0,3.0,51,0.00,,,0.00,0,Wunderground v.1.15,2013-09-05 00:16:00,
2013-09-04 20:21:00,75.6,56.2,29.93,North,360,1.0,1.0,51,0.00,,,0.00,0,Wunderground v.1.15,2013-09-05 00:21:00,
2013-09-04 20:27:00,75.4,56.5,29.93,North,360,1.0,2.0,52,0.00,,,0.00,0,Wunderground v.1.15,2013-09-05 00:27:00,
2013-09-04 20:36:00,75.3,57.0,29.93,North,360,2.0,2.0,53,0.00,,,0.00,0,Wunderground v.1.15,2013-09-05 00:36:00,
2013-09-04 20:42:00,75.1,56.8,29.93,North,360,2.0,4.0,53,0.00,,,0.00,0,Wunderground v.1.15,2013-09-05 00:42:00,
2013-09-04 20:47:00,74.9,57.1,29.93,North,360,2.0,5.0,54,0.00,,,0.00,0,Wunderground v.1.15,2013-09-05 00:47:00,
2013-09-04 20:54:00,74.7,57.5,29.93,North,360,1.0,5.0,55,0.00,,,0.00,0,Wunderground v.1.15,2013-09-05 00:54:00,
2013-09-04 21:01:00,74.6,57.4,29.94,North,360,1.0,1.0,55,0.00,,,0.00,0,Wunderground v.1.15,2013-09-05 01:01:00,
2013-09-04 21:07:00,74.4,57.7,29.94,North,360,1.0,2.0,56,0.00,,,0.00,0,Wunderground v.1.15,2013-09-05 01:07:00,
2013-09-04 21:15:00,74.2,58.0,29.94,North,360,2.0,2.0,57,0.00,,,0.00,0,Wunderground v.1.15,2013-09-05 01:15:00,
2013-09-04 21:21:00,73.9,57.7,29.94,North,360,1.0,1.0,57,0.00,,,0.00,0,Wunderground v.1.15,2013-09-05 01:21:00,
2013-09-04 21:27:00,73.7,58.0,29.94,North,360,1.0,3.0,58,0.00,,,0.00,0,Wunderground v.1.15,2013-09-05 01:27:00,
2013-09-04 21:35:00,73.5,58.3,29.94,North,360,2.0,2.0,59,0.00,,,0.00,0,Wunderground v.1.15,2013-09-05 01:35:00,
2013-09-04 21:41:00,73.3,58.1,29.94,North,360,2.0,2.0,59,0.00,,,0.00,0,Wunderground v.1.15,2013-09-05 01:41:00,
2013-09-04 21:47:00,73.3,58.6,29.94,North,360,1.0,2.0,60,0.00,,,0.00,0,Wunderground v.1.15,2013-09-05 01:47:00,
2013-09-04 21:55:00,73.0,58.8,29.94,North,360,1.0,2.0,61,0.00,,,0.00,0,Wunderground v.1.15,2013-09-05 01:55:00,
2013-09-04 22:01:00,72.8,59.0,29.95,North,360,1.0,2.0,62,0.00,,,0.00,0,Wunderground v.1.15,2013-09-05 02:01:00,
2013-09-04 22:07:00,72.7,58.9,29.95,North,360,2.0,3.0,62,0.00,,,0.00,0,Wunderground v.1.15,2013-09-05 02:07:00,
2013-09-04 22:16:00,72.5,59.2,29.95,North,360,1.0,2.0,63,0.00,,,0.00,0,Wunderground v.1.15,2013-09-05 02:16:00,
2013-09-04 22:22:00,72.3,59.0,29.95,North,360,0.0,2.0,63,0.00,,,0.00,0,Wunderground v.1.15,2013-09-05 02:22:00,
2013-09-04 22:28:00,72.1,59.2,29.95,North,360,1.0,2.0,64,0.00,,,0.00,0,Wunderground v.1.15,2013-09-05 02:28:00,
2013-09-04 22:36:00,71.8,59.4,29.95,North,360,0.0,1.0,65,0.00,,,0.00,0,Wunderground v.1.15,2013-09-05 02:36:00,
2013-09-04 22:42:00,71.6,59.2,29.95,North,360,0.0,0.0,65,0.00,,,0.00,0,Wunderground v.1.15,2013-09-05 02:42:00,
2013-09-04 22:48:00,71.5,59.5,29.95,North,360,0.0,0.0,66,0.00,,,0.00,0,Wunderground v.1.15,2013-09-05 02:48:00,
2013-09-04 22:54:00,71.1,59.2,29.95,North,360,0.0,0.0,66,0.00,,,0.00,0,Wunderground v.1.15,2013-09-05 02:54:00,
2013-09-04 23:00:00,70.9,59.4,29.95,North,360,0.0,0.0,67,0.00,,,0.00,0,Wunderground v.1.15,2013-09-05 03:00:00,
2013-09-04 23:06:00,70.8,59.3,29.95,North,360,0.0,0.0,67,0.00,,,0.00,0,Wunderground v.1.15,2013-09-05 03:06:00,
2013-09-04 23:12:00,70.8,59.3,29.95,North,360,0.0,0.0,67,0.00,,,0.00,0,Wunderground v.1.15,2013-09-05 03:12:00,
2013-09-04 23:18:00,70.6,59.5,29.95,North,360,0.0,0.0,68,0.00,,,0.00,0,Wunderground v.1.15,2013-09-05 03:18:00,
2013-09-04 23:24:00,70.4,59.3,29.95,North,360,0.0,0.0,68,0.00,,,0.00,0,Wunderground v.1.15,2013-09-05 03:24:00,
2013-09-04 23:32:00,70.1,59.0,29.95,North,360,0.0,0.0,68,0.00,,,0.00,0,Wunderground v.1.15,2013-09-05 03:32:00,
2013-09-04 23:37:00,69.9,59.3,29.95,North,360,0.0,0.0,69,0.00,,,0.00,0,Wunderground v.1.15,2013-09-05 03:37:00,
2013-09-04 23:45:00,69.6,59.4,29.94,North,360,0.0,0.0,70,0.00,,,0.00,0,Wunderground v.1.15,2013-09-05 03:45:00,
2013-09-04 23:51:00,69.4,59.6,29.94,North,360,0.0,0.0,71,0.00,,,0.00,0,Wunderground v.1.15,2013-09-05 03:51:00,
2013-09-04 23:57:00,69.3,59.5,29.94,North,360,0.0,0.0,71,0.00,,,0.00,0,Wunderground v.1.15,2013-09-05 03:57:00,